Saint Bonnet de Bellac- Haute Vienne - France
Donnes mto: mardi, 20/12/2011
Date Horaire Temp. E. Hum. E. P.atmo. Pluie Vent Direction Direction Ensoleilleme Solaire P. de rose Temp au vent Rafales
20/12/2011 00:00 5,3 C 95 % 1017,1 hPa 0,0 mm 10,8 km/h (2 Bft) S-SO 202 0 min 0 W/m 4,6 C 2,9 C 15,1 km/h (3 Bft)
20/12/2011 00:05 5,4 C 95 % 1017,1 hPa 0,0 mm 9,7 km/h (2 Bft) SO 225 0 min 0 W/m 4,7 C 3,2 C 12,6 km/h (3 Bft)
20/12/2011 00:10 5,4 C 95 % 1017,0 hPa 0,0 mm 12,6 km/h (3 Bft) S-SO 202 0 min 0 W/m 4,7 C 2,6 C 21,6 km/h (4 Bft)
20/12/2011 00:15 5,5 C 96 % 1016,7 hPa 0,0 mm 11,2 km/h (2 Bft) S-SO 202 0 min 0 W/m 4,9 C 3,0 C 16,9 km/h (3 Bft)
20/12/2011 00:20 5,5 C 96 % 1016,7 hPa 0,0 mm 11,5 km/h (2 Bft) S-SO 202 0 min 0 W/m 4,9 C 3,0 C 22,3 km/h (4 Bft)
20/12/2011 00:25 5,6 C 96 % 1016,7 hPa 0,0 mm 9,0 km/h (2 Bft) S-SO 202 0 min 0 W/m 5,0 C 3,6 C 9,0 km/h (2 Bft)
20/12/2011 00:30 5,6 C 96 % 1016,7 hPa 0,1 mm 10,1 km/h (2 Bft) O-SO 247 0 min 0 W/m 5,0 C 3,4 C 12,2 km/h (2 Bft)
20/12/2011 00:35 5,8 C 96 % 1016,6 hPa 0,0 mm 9,0 km/h (2 Bft) SO 225 0 min 0 W/m 5,2 C 3,8 C 12,6 km/h (3 Bft)
20/12/2011 00:40 5,8 C 96 % 1016,5 hPa 0,0 mm 6,5 km/h (2 Bft) S-SO 202 0 min 0 W/m 5,2 C 4,5 C 6,8 km/h (2 Bft)
20/12/2011 00:45 5,8 C 96 % 1016,6 hPa 0,0 mm 5,4 km/h (2 Bft) SO 225 0 min 0 W/m 5,2 C 4,8 C 7,6 km/h (2 Bft)
20/12/2011 00:50 5,8 C 96 % 1016,5 hPa 0,0 mm 10,4 km/h (2 Bft) SO 225 0 min 0 W/m 5,2 C 3,5 C 16,2 km/h (3 Bft)
20/12/2011 00:55 5,9 C 96 % 1016,5 hPa 0,0 mm 7,2 km/h (2 Bft) S-SO 202 0 min 0 W/m 5,3 C 4,4 C 11,2 km/h (2 Bft)
20/12/2011 01:00 5,9 C 96 % 1016,5 hPa 0,1 mm 6,8 km/h (2 Bft) S-SO 202 0 min 0 W/m 5,3 C 4,5 C 11,9 km/h (2 Bft)
20/12/2011 01:05 6,1 C 96 % 1016,4 hPa 0,0 mm 8,6 km/h (2 Bft) SO 225 0 min 0 W/m 5,5 C 4,3 C 9,7 km/h (2 Bft)
20/12/2011 01:10 6,1 C 96 % 1016,5 hPa 0,0 mm 7,6 km/h (2 Bft) SO 225 0 min 0 W/m 5,5 C 4,5 C 12,6 km/h (3 Bft)
20/12/2011 01:15 6,1 C 96 % 1016,5 hPa 0,1 mm 5,8 km/h (2 Bft) O 270 0 min 0 W/m 5,5 C 5,1 C 8,6 km/h (2 Bft)
20/12/2011 01:20 6,2 C 96 % 1016,1 hPa 0,0 mm 8,6 km/h (2 Bft) S-SO 202 0 min 0 W/m 5,6 C 4,4 C 13,0 km/h (3 Bft)
20/12/2011 01:25 6,3 C 96 % 1016,1 hPa 0,1 mm 10,8 km/h (2 Bft) S-SO 202 0 min 0 W/m 5,7 C 4,1 C 10,8 km/h (2 Bft)
20/12/2011 01:30 6,4 C 96 % 1016,1 hPa 0,0 mm 9,4 km/h (2 Bft) S-SO 202 0 min 0 W/m 5,8 C 4,5 C 13,0 km/h (3 Bft)
20/12/2011 01:35 6,5 C 96 % 1015,9 hPa 0,0 mm 10,4 km/h (2 Bft) O-SO 247 0 min 0 W/m 5,9 C 4,4 C 15,8 km/h (3 Bft)
20/12/2011 01:40 6,6 C 96 % 1015,7 hPa 0,0 mm 6,1 km/h (2 Bft) O-SO 247 0 min 0 W/m 6,0 C 5,5 C 9,4 km/h (2 Bft)
20/12/2011 01:45 6,6 C 96 % 1015,6 hPa 0,0 mm 7,9 km/h (2 Bft) O-SO 247 0 min 0 W/m 6,0 C 5,0 C 13,0 km/h (3 Bft)
20/12/2011 01:50 6,8 C 96 % 1015,6 hPa 0,0 mm 5,0 km/h (1 Bft) SO 225 0 min 0 W/m 6,2 C 6,1 C 11,9 km/h (2 Bft)
20/12/2011 01:55 6,8 C 96 % 1015,7 hPa 0,0 mm 4,7 km/h (1 Bft) SO 225 0 min 0 W/m 6,2 C 6,2 C 14,0 km/h (3 Bft)
20/12/2011 02:02 6,9 C 96 % 1015,8 hPa 0,1 mm 8,6 km/h (2 Bft) SO 225 0 min 0 W/m 6,3 C 5,2 C 8,6 km/h (2 Bft)
20/12/2011 02:05 6,9 C 96 % 1015,7 hPa 0,0 mm 6,1 km/h (2 Bft) SO 225 0 min 0 W/m 6,3 C 5,9 C 9,0 km/h (2 Bft)
20/12/2011 02:10 6,9 C 96 % 1015,5 hPa 0,0 mm 14,0 km/h (3 Bft) SO 225 0 min 0 W/m 6,3 C 4,2 C 19,1 km/h (3 Bft)
20/12/2011 02:15 7,0 C 96 % 1015,6 hPa 0,0 mm 7,2 km/h (2 Bft) SO 225 0 min 0 W/m 6,4 C 5,7 C 8,6 km/h (2 Bft)
20/12/2011 02:20 7,1 C 96 % 1015,6 hPa 0,0 mm 5,8 km/h (2 Bft) SO 225 0 min 0 W/m 6,5 C 6,2 C 9,4 km/h (2 Bft)
20/12/2011 02:25 7,3 C 96 % 1015,5 hPa 0,0 mm 6,5 km/h (2 Bft) O-SO 247 0 min 0 W/m 6,7 C 6,2 C 14,0 km/h (3 Bft)
20/12/2011 02:30 7,3 C 96 % 1015,7 hPa 0,0 mm 2,2 km/h (1 Bft) O-SO 247 0 min 0 W/m 6,7 C 7,3 C 6,1 km/h (2 Bft)
20/12/2011 02:35 7,4 C 97 % 1015,8 hPa 0,0 mm 6,1 km/h (2 Bft) SO 225 0 min 0 W/m 7,0 C 6,5 C 9,4 km/h (2 Bft)
20/12/2011 02:40 7,4 C 97 % 1015,7 hPa 0,0 mm 3,2 km/h (1 Bft) O-SO 247 0 min 0 W/m 7,0 C 7,4 C 7,6 km/h (2 Bft)
20/12/2011 02:45 7,5 C 96 % 1015,7 hPa 0,0 mm 7,9 km/h (2 Bft) O-SO 247 0 min 0 W/m 6,9 C 6,1 C 15,8 km/h (3 Bft)
20/12/2011 02:50 7,6 C 96 % 1015,7 hPa 0,1 mm 5,8 km/h (2 Bft) O-SO 247 0 min 0 W/m 7,0 C 6,8 C 15,8 km/h (3 Bft)
20/12/2011 02:55 7,6 C 96 % 1015,7 hPa 0,0 mm 3,6 km/h (1 Bft) S-SO 202 0 min 0 W/m 7,0 C 7,6 C 7,6 km/h (2 Bft)
20/12/2011 03:00 7,7 C 96 % 1015,7 hPa 0,0 mm 7,6 km/h (2 Bft) S-SO 202 0 min 0 W/m 7,1 C 6,4 C 11,5 km/h (2 Bft)
20/12/2011 03:05 7,7 C 96 % 1015,5 hPa 0,0 mm 3,6 km/h (1 Bft) O-SO 247 0 min 0 W/m 7,1 C 7,7 C 7,9 km/h (2 Bft)
20/12/2011 03:10 7,7 C 96 % 1015,5 hPa 0,1 mm 3,2 km/h (1 Bft) O-SO 247 0 min 0 W/m 7,1 C 7,7 C 4,0 km/h (1 Bft)
20/12/2011 03:15 7,7 C 96 % 1015,5 hPa 0,1 mm 5,8 km/h (2 Bft) O-SO 247 0 min 0 W/m 7,1 C 6,9 C 11,5 km/h (2 Bft)
20/12/2011 03:20 7,8 C 96 % 1015,7 hPa 0,0 mm 4,3 km/h (1 Bft) SO 225 0 min 0 W/m 7,2 C 7,8 C 7,6 km/h (2 Bft)
20/12/2011 03:25 7,8 C 96 % 1015,6 hPa 0,0 mm 5,0 km/h (1 Bft) S-SO 202 0 min 0 W/m 7,2 C 7,3 C 6,8 km/h (2 Bft)
20/12/2011 03:30 7,8 C 96 % 1015,6 hPa 0,0 mm 5,0 km/h (1 Bft) SO 225 0 min 0 W/m 7,2 C 7,3 C 8,3 km/h (2 Bft)
20/12/2011 03:35 7,8 C 96 % 1015,7 hPa 0,0 mm 1,8 km/h (1 Bft) O-SO 247 0 min 0 W/m 7,2 C 7,8 C 1,8 km/h (1 Bft)
20/12/2011 03:40 7,8 C 96 % 1015,6 hPa 0,0 mm 7,2 km/h (2 Bft) SO 225 0 min 0 W/m 7,2 C 6,6 C 10,1 km/h (2 Bft)
20/12/2011 03:45 7,8 C 96 % 1015,7 hPa 0,0 mm 1,8 km/h (1 Bft) SO 225 0 min 0 W/m 7,2 C 7,8 C 9,0 km/h (2 Bft)
20/12/2011 03:50 7,8 C 96 % 1015,6 hPa 0,0 mm 2,9 km/h (1 Bft) O-SO 247 0 min 0 W/m 7,2 C 7,8 C 7,9 km/h (2 Bft)
20/12/2011 03:55 7,8 C 96 % 1015,6 hPa 0,0 mm 1,1 km/h (1 Bft) S-SO 202 0 min 0 W/m 7,2 C 7,8 C 4,0 km/h (1 Bft)
20/12/2011 04:00 7,9 C 96 % 1015,3 hPa 0,0 mm 4,7 km/h (1 Bft) SO 225 0 min 0 W/m 7,3 C 7,5 C 12,2 km/h (2 Bft)
20/12/2011 04:05 7,9 C 96 % 1015,3 hPa 0,0 mm 5,8 km/h (2 Bft) SO 225 0 min 0 W/m 7,3 C 7,1 C 10,4 km/h (2 Bft)
20/12/2011 04:10 8,0 C 96 % 1015,1 hPa 0,0 mm 0,7 km/h (0 Bft) SO 225 0 min 0 W/m 7,4 C 8,0 C 1,4 km/h (1 Bft)
20/12/2011 04:15 8,1 C 96 % 1015,0 hPa 0,0 mm 1,8 km/h (1 Bft) O-SO 247 0 min 0 W/m 7,5 C 8,1 C 4,3 km/h (1 Bft)
20/12/2011 04:20 8,2 C 96 % 1014,9 hPa 0,1 mm 4,7 km/h (1 Bft) SO 225 0 min 0 W/m 7,6 C 7,8 C 7,9 km/h (2 Bft)
20/12/2011 04:25 8,2 C 96 % 1014,8 hPa 0,0 mm 1,8 km/h (1 Bft) O-SO 247 0 min 0 W/m 7,6 C 8,2 C 4,0 km/h (1 Bft)
20/12/2011 04:30 8,2 C 96 % 1014,7 hPa 0,0 mm 0,7 km/h (0 Bft) SO 225 0 min 0 W/m 7,6 C 8,2 C 4,3 km/h (1 Bft)
20/12/2011 04:35 8,2 C 96 % 1014,7 hPa 0,0 mm 0,0 km/h (0 Bft) O-SO 247 0 min 0 W/m 7,6 C 8,2 C 0,0 km/h (0 Bft)
20/12/2011 04:40 8,2 C 96 % 1014,6 hPa 0,1 mm 0,7 km/h (0 Bft) O 270 0 min 0 W/m 7,6 C 8,2 C 3,6 km/h (1 Bft)
20/12/2011 04:45 8,2 C 96 % 1014,6 hPa 0,0 mm 1,8 km/h (1 Bft) SO 225 0 min 0 W/m 7,6 C 8,2 C 3,2 km/h (1 Bft)
20/12/2011 04:50 8,3 C 96 % 1014,6 hPa 0,0 mm 3,6 km/h (1 Bft) S-SO 202 0 min 0 W/m 7,7 C 8,3 C 6,5 km/h (2 Bft)
20/12/2011 04:55 8,3 C 96 % 1014,4 hPa 0,0 mm 1,1 km/h (1 Bft) S-SO 202 0 min 0 W/m 7,7 C 8,3 C 1,1 km/h (1 Bft)
20/12/2011 05:00 8,3 C 96 % 1014,4 hPa 0,0 mm 1,4 km/h (1 Bft) S-SO 202 0 min 0 W/m 7,7 C 8,3 C 6,5 km/h (2 Bft)
20/12/2011 05:05 8,4 C 96 % 1014,3 hPa 0,0 mm 5,0 km/h (1 Bft) SO 225 0 min 0 W/m 7,8 C 7,9 C 6,8 km/h (2 Bft)
20/12/2011 05:10 8,4 C 96 % 1014,5 hPa 0,0 mm 0,0 km/h (0 Bft) O-SO 247 0 min 0 W/m 7,8 C 8,4 C 0,0 km/h (0 Bft)
20/12/2011 05:15 8,5 C 96 % 1014,5 hPa 0,0 mm 4,7 km/h (1 Bft) O-SO 247 0 min 0 W/m 7,9 C 8,2 C 4,7 km/h (1 Bft)
20/12/2011 05:20 8,7 C 96 % 1014,5 hPa 0,0 mm 1,8 km/h (1 Bft) O-SO 247 0 min 0 W/m 8,1 C 8,7 C 10,1 km/h (2 Bft)
20/12/2011 05:25 8,8 C 96 % 1014,5 hPa 0,0 mm 0,4 km/h (0 Bft) O-SO 247 0 min 0 W/m 8,2 C 8,8 C 4,0 km/h (1 Bft)
20/12/2011 05:30 8,9 C 96 % 1014,5 hPa 0,0 mm 0,0 km/h (0 Bft) O-SO 247 0 min 0 W/m 8,3 C 8,9 C 0,0 km/h (0 Bft)
20/12/2011 05:35 8,9 C 96 % 1014,5 hPa 0,0 mm 3,6 km/h (1 Bft) O 270 0 min 0 W/m 8,3 C 8,9 C 9,0 km/h (2 Bft)
20/12/2011 05:40 8,9 C 96 % 1014,3 hPa 0,0 mm 0,4 km/h (0 Bft) O-SO 247 0 min 0 W/m 8,3 C 8,9 C 0,4 km/h (0 Bft)
20/12/2011 05:45 8,9 C 96 % 1014,2 hPa 0,1 mm 0,4 km/h (0 Bft) O-SO 247 0 min 0 W/m 8,3 C 8,9 C 0,4 km/h (0 Bft)
20/12/2011 05:50 9,0 C 96 % 1014,2 hPa 0,0 mm 0,7 km/h (0 Bft) O-SO 247 0 min 0 W/m 8,4 C 9,0 C 3,2 km/h (1 Bft)
20/12/2011 05:55 9,0 C 96 % 1014,3 hPa 0,0 mm 0,4 km/h (0 Bft) O-SO 247 0 min 0 W/m 8,4 C 9,0 C 2,9 km/h (1 Bft)
20/12/2011 06:00 9,1 C 96 % 1014,3 hPa 0,0 mm 0,0 km/h (0 Bft) O-SO 247 0 min 0 W/m 8,5 C 9,1 C 4,0 km/h (1 Bft)
20/12/2011 06:05 9,0 C 96 % 1014,2 hPa 0,1 mm 0,7 km/h (0 Bft) O-SO 247 0 min 0 W/m 8,4 C 9,0 C 3,6 km/h (1 Bft)
20/12/2011 06:10 9,0 C 96 % 1014,3 hPa 0,0 mm 0,0 km/h (0 Bft) SO 225 0 min 0 W/m 8,4 C 9,0 C 0,0 km/h (0 Bft)
20/12/2011 06:15 9,1 C 96 % 1014,2 hPa 0,0 mm 0,7 km/h (0 Bft) O-SO 247 0 min 0 W/m 8,5 C 9,1 C 4,3 km/h (1 Bft)
20/12/2011 06:20 9,0 C 96 % 1014,3 hPa 0,0 mm 0,4 km/h (0 Bft) O 270 0 min 0 W/m 8,4 C 9,0 C 0,4 km/h (0 Bft)
20/12/2011 06:25 8,9 C 96 % 1014,3 hPa 0,0 mm 0,0 km/h (0 Bft) O 270 0 min 0 W/m 8,3 C 8,9 C 0,0 km/h (0 Bft)
20/12/2011 06:30 8,9 C 96 % 1014,3 hPa 0,0 mm 0,0 km/h (0 Bft) O-SO 247 0 min 0 W/m 8,3 C 8,9 C 0,0 km/h (0 Bft)
20/12/2011 06:35 8,9 C 96 % 1014,3 hPa 0,0 mm 1,4 km/h (1 Bft) O-SO 247 0 min 0 W/m 8,3 C 8,9 C 5,8 km/h (2 Bft)
20/12/2011 06:40 8,9 C 96 % 1014,4 hPa 0,0 mm 1,8 km/h (1 Bft) O-SO 247 0 min 0 W/m 8,3 C 8,9 C 1,8 km/h (1 Bft)
20/12/2011 06:45 9,1 C 96 % 1014,4 hPa 0,0 mm 3,2 km/h (1 Bft) O-SO 247 0 min 0 W/m 8,5 C 9,1 C 7,9 km/h (2 Bft)
20/12/2011 06:50 9,2 C 96 % 1014,5 hPa 0,0 mm 1,8 km/h (1 Bft) O 270 0 min 0 W/m 8,6 C 9,2 C 4,0 km/h (1 Bft)
20/12/2011 06:55 9,3 C 96 % 1014,4 hPa 0,0 mm 2,5 km/h (1 Bft) O-SO 247 0 min 0 W/m 8,7 C 9,3 C 4,3 km/h (1 Bft)
20/12/2011 07:00 9,4 C 96 % 1014,4 hPa 0,0 mm 0,4 km/h (0 Bft) O 270 0 min 0 W/m 8,8 C 9,4 C 3,6 km/h (1 Bft)
20/12/2011 07:05 9,4 C 96 % 1014,6 hPa 0,0 mm 6,5 km/h (2 Bft) O-NO 292 0 min 0 W/m 8,8 C 8,7 C 14,0 km/h (3 Bft)
20/12/2011 07:10 9,4 C 96 % 1014,7 hPa 0,0 mm 3,6 km/h (1 Bft) N-NO 337 0 min 0 W/m 8,8 C 9,4 C 3,6 km/h (1 Bft)
20/12/2011 07:15 9,5 C 96 % 1014,8 hPa 0,1 mm 8,3 km/h (2 Bft) NO 315 0 min 0 W/m 8,9 C 8,4 C 8,6 km/h (2 Bft)
20/12/2011 07:20 9,5 C 96 % 1014,9 hPa 0,0 mm 10,4 km/h (2 Bft) O-NO 292 0 min 0 W/m 8,9 C 8,0 C 13,0 km/h (3 Bft)
20/12/2011 07:25 9,4 C 96 % 1014,9 hPa 0,0 mm 6,1 km/h (2 Bft) O-NO 292 0 min 0 W/m 8,8 C 8,8 C 7,9 km/h (2 Bft)
20/12/2011 07:30 9,4 C 96 % 1015,1 hPa 0,0 mm 5,4 km/h (2 Bft) NO 315 0 min 0 W/m 8,8 C 9,0 C 12,6 km/h (3 Bft)
20/12/2011 07:35 9,4 C 96 % 1015,1 hPa 0,0 mm 9,0 km/h (2 Bft) N-NO 337 0 min 0 W/m 8,8 C 8,1 C 13,7 km/h (3 Bft)
20/12/2011 07:40 9,4 C 96 % 1015,2 hPa 0,0 mm 3,2 km/h (1 Bft) O-NO 292 0 min 0 W/m 8,8 C 9,4 C 3,2 km/h (1 Bft)
20/12/2011 07:45 9,3 C 96 % 1015,1 hPa 0,0 mm 4,0 km/h (1 Bft) O-NO 292 0 min 0 W/m 8,7 C 9,3 C 7,2 km/h (2 Bft)
20/12/2011 07:50 9,3 C 96 % 1015,3 hPa 0,0 mm 0,4 km/h (0 Bft) NO 315 0 min 0 W/m 8,7 C 9,3 C 0,4 km/h (0 Bft)
20/12/2011 07:55 9,3 C 96 % 1015,4 hPa 0,0 mm 2,2 km/h (1 Bft) O 270 0 min 0 W/m 8,7 C 9,3 C 4,0 km/h (1 Bft)
20/12/2011 08:00 9,3 C 96 % 1015,3 hPa 0,0 mm 5,4 km/h (2 Bft) O-NO 292 0 min 0 W/m 8,7 C 8,8 C 12,2 km/h (2 Bft)
20/12/2011 08:05 9,3 C 96 % 1015,3 hPa 0,0 mm 0,7 km/h (0 Bft) O 270 0 min 0 W/m 8,7 C 9,3 C 0,7 km/h (0 Bft)
20/12/2011 08:10 9,3 C 96 % 1015,4 hPa 0,0 mm 5,8 km/h (2 Bft) NO 315 0 min 0 W/m 8,7 C 8,7 C 5,8 km/h (2 Bft)
20/12/2011 08:15 9,3 C 96 % 1015,2 hPa 0,0 mm 5,4 km/h (2 Bft) O-SO 247 0 min 0 W/m 8,7 C 8,8 C 12,2 km/h (2 Bft)
20/12/2011 08:20 9,2 C 96 % 1015,3 hPa 0,0 mm 4,7 km/h (1 Bft) O-NO 292 0 min 0 W/m 8,6 C 8,9 C 18,0 km/h (3 Bft)
20/12/2011 08:25 9,2 C 96 % 1015,3 hPa 0,0 mm 4,7 km/h (1 Bft) O-SO 247 0 min 0 W/m 8,6 C 8,9 C 16,9 km/h (3 Bft)
20/12/2011 08:30 9,2 C 96 % 1015,4 hPa 0,0 mm 2,5 km/h (1 Bft) O 270 0 min 0 W/m 8,6 C 9,2 C 2,5 km/h (1 Bft)
20/12/2011 08:35 9,2 C 96 % 1015,5 hPa 0,0 mm 2,2 km/h (1 Bft) O 270 0 min 0 W/m 8,6 C 9,2 C 3,2 km/h (1 Bft)
20/12/2011 08:40 9,2 C 96 % 1015,7 hPa 0,0 mm 0,0 km/h (0 Bft) O-NO 292 0 min 0 W/m 8,6 C 9,2 C 0,0 km/h (0 Bft)
20/12/2011 08:45 9,1 C 96 % 1015,7 hPa 0,0 mm 1,4 km/h (1 Bft) O-NO 292 0 min 0 W/m 8,5 C 9,1 C 6,1 km/h (2 Bft)
20/12/2011 08:50 9,1 C 96 % 1015,8 hPa 0,0 mm 3,2 km/h (1 Bft) NO 315 0 min 0 W/m 8,5 C 9,1 C 9,4 km/h (2 Bft)
20/12/2011 08:55 9,1 C 96 % 1015,8 hPa 0,0 mm 3,6 km/h (1 Bft) SO 225 0 min 0 W/m 8,5 C 9,1 C 3,6 km/h (1 Bft)
20/12/2011 09:00 9,1 C 96 % 1015,9 hPa 0,0 mm 1,4 km/h (1 Bft) O-SO 247 0 min 0 W/m 8,5 C 9,1 C 1,4 km/h (1 Bft)
20/12/2011 09:05 9,1 C 96 % 1015,9 hPa 0,0 mm 1,1 km/h (1 Bft) O-NO 292 0 min 0 W/m 8,5 C 9,1 C 6,8 km/h (2 Bft)
20/12/2011 09:10 9,2 C 96 % 1015,9 hPa 0,0 mm 4,7 km/h (1 Bft) O-SO 247 0 min 0 W/m 8,6 C 8,9 C 4,7 km/h (1 Bft)
20/12/2011 09:15 9,2 C 96 % 1016,0 hPa 0,0 mm 1,8 km/h (1 Bft) O-NO 292 0 min 0 W/m 8,6 C 9,2 C 8,3 km/h (2 Bft)
20/12/2011 09:20 9,2 C 96 % 1016,1 hPa 0,0 mm 3,6 km/h (1 Bft) O-NO 292 0 min 0 W/m 8,6 C 9,2 C 4,3 km/h (1 Bft)
20/12/2011 09:25 9,2 C 96 % 1016,1 hPa 0,0 mm 2,9 km/h (1 Bft) NO 315 0 min 0 W/m 8,6 C 9,2 C 7,9 km/h (2 Bft)
20/12/2011 09:30 9,2 C 96 % 1016,2 hPa 0,0 mm 5,8 km/h (2 Bft) O 270 0 min 0 W/m 8,6 C 8,6 C 9,7 km/h (2 Bft)
20/12/2011 09:35 9,2 C 96 % 1016,2 hPa 0,0 mm 2,9 km/h (1 Bft) O-NO 292 0 min 0 W/m 8,6 C 9,2 C 6,5 km/h (2 Bft)
20/12/2011 09:40 9,2 C 96 % 1016,3 hPa 0,0 mm 4,7 km/h (1 Bft) O 270 0 min 0 W/m 8,6 C 8,9 C 9,7 km/h (2 Bft)
20/12/2011 09:45 9,3 C 96 % 1016,4 hPa 0,0 mm 2,2 km/h (1 Bft) NO 315 0 min 0 W/m 8,7 C 9,3 C 7,2 km/h (2 Bft)
20/12/2011 09:50 9,3 C 96 % 1016,5 hPa 0,0 mm 6,5 km/h (2 Bft) O-NO 292 0 min 0 W/m 8,7 C 8,5 C 13,0 km/h (3 Bft)
20/12/2011 09:55 9,3 C 96 % 1016,5 hPa 0,0 mm 0,4 km/h (0 Bft) NO 315 0 min 0 W/m 8,7 C 9,3 C 0,4 km/h (0 Bft)
20/12/2011 10:00 9,3 C 96 % 1016,6 hPa 0,0 mm 7,9 km/h (2 Bft) O-NO 292 0 min 0 W/m 8,7 C 8,2 C 11,9 km/h (2 Bft)
20/12/2011 10:05 9,3 C 96 % 1016,6 hPa 0,0 mm 2,5 km/h (1 Bft) O-NO 292 0 min 0 W/m 8,7 C 9,3 C 6,8 km/h (2 Bft)
20/12/2011 10:10 9,3 C 96 % 1016,7 hPa 0,0 mm 6,1 km/h (2 Bft) O 270 0 min 0 W/m 8,7 C 8,6 C 11,9 km/h (2 Bft)
20/12/2011 10:15 9,3 C 96 % 1016,8 hPa 0,0 mm 1,4 km/h (1 Bft) NO 315 0 min 0 W/m 8,7 C 9,3 C 4,3 km/h (1 Bft)
20/12/2011 10:20 9,4 C 96 % 1016,9 hPa 0,0 mm 4,0 km/h (1 Bft) N-NO 337 0 min 0 W/m 8,8 C 9,4 C 11,2 km/h (2 Bft)
20/12/2011 10:25 9,4 C 96 % 1016,9 hPa 0,0 mm 2,9 km/h (1 Bft) O 270 0 min 0 W/m 8,8 C 9,4 C 7,6 km/h (2 Bft)
20/12/2011 10:30 9,4 C 96 % 1016,9 hPa 0,0 mm 1,4 km/h (1 Bft) O 270 0 min 0 W/m 8,8 C 9,4 C 4,0 km/h (1 Bft)
20/12/2011 10:35 9,4 C 96 % 1016,8 hPa 0,0 mm 1,1 km/h (1 Bft) O-SO 247 0 min 0 W/m 8,8 C 9,4 C 1,1 km/h (1 Bft)
20/12/2011 10:40 9,4 C 96 % 1017,1 hPa 0,0 mm 6,8 km/h (2 Bft) O-SO 247 0 min 0 W/m 8,8 C 8,6 C 15,5 km/h (3 Bft)
20/12/2011 10:45 9,4 C 96 % 1017,1 hPa 0,0 mm 6,8 km/h (2 Bft) NO 315 0 min 0 W/m 8,8 C 8,6 C 21,6 km/h (4 Bft)
20/12/2011 10:50 9,4 C 96 % 1017,1 hPa 0,0 mm 7,2 km/h (2 Bft) NO 315 0 min 0 W/m 8,8 C 8,5 C 10,1 km/h (2 Bft)
20/12/2011 10:55 9,5 C 96 % 1017,2 hPa 0,0 mm 8,3 km/h (2 Bft) O 270 0 min 0 W/m 8,9 C 8,4 C 11,2 km/h (2 Bft)
20/12/2011 11:00 9,5 C 96 % 1017,3 hPa 0,0 mm 2,5 km/h (1 Bft) N-NO 337 0 min 0 W/m 8,9 C 9,5 C 6,8 km/h (2 Bft)
20/12/2011 11:05 9,6 C 96 % 1017,2 hPa 0,0 mm 8,3 km/h (2 Bft) NO 315 0 min 0 W/m 9,0 C 8,5 C 17,3 km/h (3 Bft)
20/12/2011 11:10 9,6 C 96 % 1017,1 hPa 0,0 mm 3,6 km/h (1 Bft) NO 315 0 min 0 W/m 9,0 C 9,6 C 10,1 km/h (2 Bft)
20/12/2011 11:15 9,6 C 96 % 1017,2 hPa 0,0 mm 1,4 km/h (1 Bft) NO 315 0 min 0 W/m 9,0 C 9,6 C 4,0 km/h (1 Bft)
20/12/2011 11:20 9,7 C 96 % 1017,2 hPa 0,0 mm 2,2 km/h (1 Bft) O-NO 292 0 min 0 W/m 9,1 C 9,7 C 7,2 km/h (2 Bft)
20/12/2011 11:25 9,8 C 96 % 1017,2 hPa 0,0 mm 9,7 km/h (2 Bft) N 360 0 min 0 W/m 9,2 C 8,4 C 15,1 km/h (3 Bft)
20/12/2011 11:30 9,8 C 96 % 1017,1 hPa 0,0 mm 4,7 km/h (1 Bft) O 270 0 min 0 W/m 9,2 C 9,6 C 4,7 km/h (1 Bft)
20/12/2011 11:35 9,8 C 96 % 1017,1 hPa 0,0 mm 1,4 km/h (1 Bft) O-NO 292 0 min 0 W/m 9,2 C 9,8 C 6,1 km/h (2 Bft)
20/12/2011 11:40 9,8 C 96 % 1017,1 hPa 0,0 mm 1,4 km/h (1 Bft) N 360 0 min 0 W/m 9,2 C 9,8 C 1,4 km/h (1 Bft)
20/12/2011 11:45 9,8 C 96 % 1017,1 hPa 0,0 mm 4,3 km/h (1 Bft) O-NO 292 0 min 0 W/m 9,2 C 9,8 C 9,4 km/h (2 Bft)
20/12/2011 11:50 9,8 C 96 % 1017,1 hPa 0,0 mm 2,2 km/h (1 Bft) N-NE 22 0 min 0 W/m 9,2 C 9,8 C 7,9 km/h (2 Bft)
20/12/2011 11:55 9,8 C 96 % 1017,2 hPa 0,0 mm 8,6 km/h (2 Bft) NO 315 0 min 0 W/m 9,2 C 8,7 C 9,7 km/h (2 Bft)
20/12/2011 12:00 9,8 C 96 % 1017,4 hPa 0,0 mm 4,7 km/h (1 Bft) O-NO 292 0 min 0 W/m 9,2 C 9,6 C 9,4 km/h (2 Bft)
20/12/2011 12:05 9,8 C 96 % 1017,5 hPa 0,0 mm 4,7 km/h (1 Bft) NO 315 0 min 0 W/m 9,2 C 9,6 C 11,2 km/h (2 Bft)
20/12/2011 12:10 9,8 C 96 % 1017,6 hPa 0,0 mm 7,9 km/h (2 Bft) NO 315 0 min 0 W/m 9,2 C 8,8 C 10,4 km/h (2 Bft)
20/12/2011 12:15 9,8 C 96 % 1017,5 hPa 0,0 mm 14,0 km/h (3 Bft) O-NO 292 0 min 0 W/m 9,2 C 7,8 C 15,8 km/h (3 Bft)
20/12/2011 12:20 9,8 C 96 % 1017,5 hPa 0,0 mm 4,7 km/h (1 Bft) O-NO 292 0 min 0 W/m 9,2 C 9,6 C 17,3 km/h (3 Bft)
20/12/2011 12:25 9,9 C 96 % 1017,3 hPa 0,0 mm 7,9 km/h (2 Bft) NO 315 0 min 0 W/m 9,3 C 8,9 C 9,0 km/h (2 Bft)
20/12/2011 12:30 9,9 C 96 % 1017,3 hPa 0,0 mm 2,9 km/h (1 Bft) O-NO 292 0 min 0 W/m 9,3 C 9,9 C 6,8 km/h (2 Bft)
20/12/2011 12:35 9,9 C 96 % 1017,2 hPa 0,0 mm 2,2 km/h (1 Bft) NO 315 0 min 0 W/m 9,3 C 9,9 C 3,6 km/h (1 Bft)
20/12/2011 12:40 9,9 C 96 % 1017,0 hPa 0,0 mm 5,4 km/h (2 Bft) O-NO 292 0 min 0 W/m 9,3 C 9,5 C 5,4 km/h (2 Bft)
20/12/2011 12:45 9,8 C 96 % 1016,9 hPa 0,0 mm 8,6 km/h (2 Bft) O-NO 292 0 min 0 W/m 9,2 C 8,7 C 13,7 km/h (3 Bft)
20/12/2011 12:50 9,8 C 96 % 1016,9 hPa 0,0 mm 13,3 km/h (3 Bft) N-NO 337 0 min 0 W/m 9,2 C 7,9 C 18,4 km/h (3 Bft)
20/12/2011 12:55 9,8 C 96 % 1017,0 hPa 0,0 mm 14,4 km/h (3 Bft) NO 315 0 min 0 W/m 9,2 C 7,7 C 16,2 km/h (3 Bft)
20/12/2011 13:00 9,8 C 96 % 1017,0 hPa 0,0 mm 15,8 km/h (3 Bft) O-NO 292 0 min 0 W/m 9,2 C 7,6 C 16,9 km/h (3 Bft)
20/12/2011 13:05 9,8 C 96 % 1017,0 hPa 0,0 mm 9,7 km/h (2 Bft) O-NO 292 0 min 0 W/m 9,2 C 8,4 C 11,9 km/h (2 Bft)
20/12/2011 13:10 9,8 C 96 % 1016,9 hPa 0,0 mm 2,9 km/h (1 Bft) NO 315 0 min 0 W/m 9,2 C 9,8 C 2,9 km/h (1 Bft)
20/12/2011 13:15 9,8 C 96 % 1016,9 hPa 0,0 mm 3,6 km/h (1 Bft) NO 315 0 min 0 W/m 9,2 C 9,8 C 7,9 km/h (2 Bft)
20/12/2011 13:20 9,8 C 95 % 1016,7 hPa 0,0 mm 1,8 km/h (1 Bft) N-NO 337 0 min 0 W/m 9,0 C 9,8 C 6,8 km/h (2 Bft)
20/12/2011 13:25 9,8 C 95 % 1016,6 hPa 0,0 mm 11,9 km/h (2 Bft) N-NO 337 0 min 0 W/m 9,0 C 8,1 C 18,4 km/h (3 Bft)
20/12/2011 13:30 9,8 C 95 % 1017,0 hPa 0,0 mm 3,6 km/h (1 Bft) NO 315 0 min 0 W/m 9,0 C 9,8 C 7,9 km/h (2 Bft)
20/12/2011 13:35 9,9 C 95 % 1017,1 hPa 0,0 mm 10,8 km/h (2 Bft) N 360 0 min 0 W/m 9,1 C 8,4 C 10,8 km/h (2 Bft)
20/12/2011 13:40 9,9 C 95 % 1017,2 hPa 0,0 mm 10,8 km/h (2 Bft) N-NO 337 0 min 0 W/m 9,1 C 8,4 C 17,6 km/h (3 Bft)
20/12/2011 13:45 9,9 C 95 % 1017,3 hPa 0,0 mm 8,6 km/h (2 Bft) NO 315 0 min 0 W/m 9,1 C 8,8 C 11,9 km/h (2 Bft)
20/12/2011 13:50 9,8 C 94 % 1017,2 hPa 0,0 mm 6,8 km/h (2 Bft) NE 45 0 min 0 W/m 8,9 C 9,0 C 7,2 km/h (2 Bft)
20/12/2011 13:55 9,8 C 94 % 1017,3 hPa 0,0 mm 6,8 km/h (2 Bft) O-NO 292 0 min 0 W/m 8,9 C 9,0 C 14,8 km/h (3 Bft)
20/12/2011 14:00 9,8 C 94 % 1017,3 hPa 0,0 mm 6,1 km/h (2 Bft) NO 315 0 min 0 W/m 8,9 C 9,2 C 12,6 km/h (3 Bft)
20/12/2011 14:05 9,8 C 94 % 1017,2 hPa 0,0 mm 17,6 km/h (3 Bft) NO 315 0 min 0 W/m 8,9 C 7,4 C 22,7 km/h (4 Bft)
20/12/2011 14:10 9,8 C 94 % 1017,3 hPa 0,0 mm 10,8 km/h (2 Bft) NO 315 0 min 0 W/m 8,9 C 8,3 C 17,3 km/h (3 Bft)
20/12/2011 14:15 9,8 C 93 % 1017,5 hPa 0,0 mm 9,4 km/h (2 Bft) NO 315 0 min 0 W/m 8,7 C 8,5 C 14,0 km/h (3 Bft)
20/12/2011 14:20 9,8 C 93 % 1017,6 hPa 0,0 mm 19,4 km/h (3 Bft) NO 315 0 min 0 W/m 8,7 C 7,2 C 19,4 km/h (3 Bft)
20/12/2011 14:25 9,6 C 92 % 1017,7 hPa 0,0 mm 6,5 km/h (2 Bft) NO 315 0 min 0 W/m 8,4 C 8,9 C 12,6 km/h (3 Bft)
20/12/2011 14:30 9,6 C 91 % 1017,7 hPa 0,0 mm 6,8 km/h (2 Bft) NO 315 0 min 0 W/m 8,2 C 8,8 C 6,8 km/h (2 Bft)
20/12/2011 14:35 9,6 C 91 % 1017,8 hPa 0,0 mm 1,1 km/h (1 Bft) NO 315 0 min 0 W/m 8,2 C 9,6 C 3,6 km/h (1 Bft)
20/12/2011 14:40 9,6 C 91 % 1017,8 hPa 0,0 mm 11,5 km/h (2 Bft) O-NO 292 0 min 0 W/m 8,2 C 7,9 C 12,2 km/h (2 Bft)
20/12/2011 14:45 9,6 C 91 % 1017,8 hPa 0,0 mm 6,1 km/h (2 Bft) NO 315 0 min 0 W/m 8,2 C 9,0 C 6,1 km/h (2 Bft)
20/12/2011 14:50 9,6 C 91 % 1017,8 hPa 0,0 mm 3,2 km/h (1 Bft) NO 315 0 min 0 W/m 8,2 C 9,6 C 3,6 km/h (1 Bft)
20/12/2011 14:55 9,5 C 91 % 1017,9 hPa 0,0 mm 10,1 km/h (2 Bft) O-NO 292 0 min 0 W/m 8,1 C 8,0 C 13,3 km/h (3 Bft)
20/12/2011 15:00 9,6 C 90 % 1017,9 hPa 0,0 mm 5,0 km/h (1 Bft) NO 315 0 min 0 W/m 8,0 C 9,3 C 11,5 km/h (2 Bft)
20/12/2011 15:05 9,5 C 90 % 1017,9 hPa 0,0 mm 5,8 km/h (2 Bft) O-NO 292 0 min 0 W/m 7,9 C 9,0 C 14,8 km/h (3 Bft)
20/12/2011 15:10 9,5 C 90 % 1017,9 hPa 0,0 mm 10,4 km/h (2 Bft) NO 315 0 min 0 W/m 7,9 C 8,0 C 13,0 km/h (3 Bft)
20/12/2011 15:15 9,6 C 90 % 1017,9 hPa 0,0 mm 3,2 km/h (1 Bft) NO 315 0 min 0 W/m 8,0 C 9,6 C 8,3 km/h (2 Bft)
20/12/2011 15:20 9,5 C 90 % 1017,8 hPa 0,0 mm 3,6 km/h (1 Bft) O 270 0 min 0 W/m 7,9 C 9,5 C 8,6 km/h (2 Bft)
20/12/2011 15:25 9,5 C 90 % 1017,9 hPa 0,0 mm 2,9 km/h (1 Bft) N-NO 337 0 min 0 W/m 7,9 C 9,5 C 9,4 km/h (2 Bft)
20/12/2011 15:30 9,5 C 90 % 1017,9 hPa 0,0 mm 0,0 km/h (0 Bft) O-NO 292 0 min 0 W/m 7,9 C 9,5 C 3,6 km/h (1 Bft)
20/12/2011 15:35 9,5 C 90 % 1018,0 hPa 0,0 mm 3,2 km/h (1 Bft) O-NO 292 0 min 0 W/m 7,9 C 9,5 C 4,3 km/h (1 Bft)
20/12/2011 15:40 9,4 C 90 % 1018,1 hPa 0,0 mm 1,4 km/h (1 Bft) O-NO 292 0 min 0 W/m 7,8 C 9,4 C 4,0 km/h (1 Bft)
20/12/2011 15:45 9,4 C 90 % 1018,1 hPa 0,0 mm 3,6 km/h (1 Bft) NO 315 0 min 0 W/m 7,8 C 9,4 C 3,6 km/h (1 Bft)
20/12/2011 15:50 9,4 C 90 % 1018,2 hPa 0,0 mm 4,7 km/h (1 Bft) NO 315 0 min 0 W/m 7,8 C 9,2 C 11,9 km/h (2 Bft)
20/12/2011 15:55 9,4 C 90 % 1018,5 hPa 0,0 mm 10,1 km/h (2 Bft) NO 315 0 min 0 W/m 7,8 C 7,9 C 15,1 km/h (3 Bft)
20/12/2011 16:00 9,4 C 90 % 1018,5 hPa 0,0 mm 12,6 km/h (3 Bft) O-NO 292 0 min 0 W/m 7,8 C 7,5 C 20,2 km/h (4 Bft)
20/12/2011 16:05 9,3 C 89 % 1018,4 hPa 0,0 mm 9,0 km/h (2 Bft) O-NO 292 0 min 0 W/m 7,6 C 8,0 C 13,7 km/h (3 Bft)
20/12/2011 16:10 9,2 C 89 % 1018,3 hPa 0,0 mm 7,6 km/h (2 Bft) O-NO 292 0 min 0 W/m 7,5 C 8,2 C 16,6 km/h (3 Bft)
20/12/2011 16:15 9,1 C 89 % 1018,6 hPa 0,0 mm 2,5 km/h (1 Bft) O-NO 292 0 min 0 W/m 7,4 C 9,1 C 2,5 km/h (1 Bft)
20/12/2011 16:20 9,0 C 89 % 1018,6 hPa 0,0 mm 7,6 km/h (2 Bft) O-NO 292 0 min 0 W/m 7,3 C 7,9 C 14,4 km/h (3 Bft)
20/12/2011 16:25 8,9 C 89 % 1018,8 hPa 0,0 mm 7,2 km/h (2 Bft) NO 315 0 min 0 W/m 7,2 C 7,9 C 13,0 km/h (3 Bft)
20/12/2011 16:30 8,8 C 89 % 1018,7 hPa 0,0 mm 4,0 km/h (1 Bft) O 270 0 min 0 W/m 7,1 C 8,8 C 7,9 km/h (2 Bft)
20/12/2011 16:35 8,8 C 89 % 1018,9 hPa 0,0 mm 10,1 km/h (2 Bft) NO 315 0 min 0 W/m 7,1 C 7,2 C 12,2 km/h (2 Bft)
20/12/2011 16:40 8,6 C 89 % 1019,0 hPa 0,0 mm 3,6 km/h (1 Bft) NO 315 0 min 0 W/m 6,9 C 8,6 C 10,1 km/h (2 Bft)
20/12/2011 16:45 8,5 C 89 % 1019,3 hPa 0,0 mm 4,0 km/h (1 Bft) NO 315 0 min 0 W/m 6,8 C 8,5 C 6,1 km/h (2 Bft)
20/12/2011 16:50 8,4 C 89 % 1019,5 hPa 0,0 mm 4,0 km/h (1 Bft) NO 315 0 min 0 W/m 6,7 C 8,4 C 8,6 km/h (2 Bft)
20/12/2011 16:55 8,3 C 89 % 1019,5 hPa 0,0 mm 1,8 km/h (1 Bft) O 270 0 min 0 W/m 6,6 C 8,3 C 4,3 km/h (1 Bft)
20/12/2011 17:00 8,2 C 89 % 1019,7 hPa 0,0 mm 9,7 km/h (2 Bft) N-NO 337 0 min 0 W/m 6,5 C 6,5 C 14,4 km/h (3 Bft)
20/12/2011 17:05 8,1 C 89 % 1019,8 hPa 0,0 mm 7,6 km/h (2 Bft) NO 315 0 min 0 W/m 6,4 C 6,9 C 14,4 km/h (3 Bft)
20/12/2011 17:10 8,1 C 89 % 1019,9 hPa 0,0 mm 10,4 km/h (2 Bft) O 270 0 min 0 W/m 6,4 C 6,3 C 15,8 km/h (3 Bft)
20/12/2011 17:15 8,0 C 89 % 1019,9 hPa 0,0 mm 1,8 km/h (1 Bft) O-NO 292 0 min 0 W/m 6,3 C 8,0 C 2,9 km/h (1 Bft)
20/12/2011 17:20 7,9 C 89 % 1020,1 hPa 0,0 mm 3,2 km/h (1 Bft) O-NO 292 0 min 0 W/m 6,2 C 7,9 C 8,6 km/h (2 Bft)
20/12/2011 17:25 7,9 C 89 % 1020,0 hPa 0,0 mm 6,8 km/h (2 Bft) NO 315 0 min 0 W/m 6,2 C 6,8 C 10,4 km/h (2 Bft)
20/12/2011 17:30 7,8 C 89 % 1020,0 hPa 0,0 mm 1,8 km/h (1 Bft) S 180 0 min 0 W/m 6,1 C 7,8 C 1,8 km/h (1 Bft)
20/12/2011 17:35 7,8 C 89 % 1020,1 hPa 0,0 mm 4,3 km/h (1 Bft) N-NO 337 0 min 0 W/m 6,1 C 7,8 C 6,5 km/h (2 Bft)
20/12/2011 17:40 7,8 C 90 % 1020,0 hPa 0,0 mm 1,1 km/h (1 Bft) O-NO 292 0 min 0 W/m 6,3 C 7,8 C 1,1 km/h (1 Bft)
20/12/2011 17:45 7,8 C 90 % 1020,2 hPa 0,0 mm 0,0 km/h (0 Bft) O 270 0 min 0 W/m 6,3 C 7,8 C 0,0 km/h (0 Bft)
20/12/2011 17:50 7,7 C 90 % 1020,3 hPa 0,0 mm 1,1 km/h (1 Bft) O-NO 292 0 min 0 W/m 6,2 C 7,7 C 1,1 km/h (1 Bft)
20/12/2011 17:55 7,6 C 90 % 1020,3 hPa 0,0 mm 0,4 km/h (0 Bft) O-NO 292 0 min 0 W/m 6,1 C 7,6 C 2,9 km/h (1 Bft)
20/12/2011 18:00 7,6 C 90 % 1020,5 hPa 0,0 mm 0,4 km/h (0 Bft) O-NO 292 0 min 0 W/m 6,1 C 7,6 C 0,4 km/h (0 Bft)
20/12/2011 18:05 7,5 C 90 % 1020,6 hPa 0,0 mm 0,0 km/h (0 Bft) O-NO 292 0 min 0 W/m 6,0 C 7,5 C 0,0 km/h (0 Bft)
20/12/2011 18:10 7,5 C 90 % 1020,7 hPa 0,0 mm 0,0 km/h (0 Bft) O-NO 292 0 min 0 W/m 6,0 C 7,5 C 0,0 km/h (0 Bft)
20/12/2011 18:15 7,5 C 89 % 1020,6 hPa 0,0 mm 0,7 km/h (0 Bft) NO 315 0 min 0 W/m 5,8 C 7,5 C 0,7 km/h (0 Bft)
20/12/2011 18:20 7,4 C 89 % 1020,7 hPa 0,0 mm 0,0 km/h (0 Bft) N-NO 337 0 min 0 W/m 5,7 C 7,4 C 0,0 km/h (0 Bft)
20/12/2011 18:25 7,4 C 90 % 1020,8 hPa 0,0 mm 1,4 km/h (1 Bft) O-NO 292 0 min 0 W/m 5,9 C 7,4 C 6,5 km/h (2 Bft)
20/12/2011 18:30 7,4 C 90 % 1020,7 hPa 0,0 mm 0,0 km/h (0 Bft) O-NO 292 0 min 0 W/m 5,9 C 7,4 C 0,0 km/h (0 Bft)
20/12/2011 18:35 7,4 C 90 % 1020,7 hPa 0,0 mm 0,4 km/h (0 Bft) O-NO 292 0 min 0 W/m 5,9 C 7,4 C 4,0 km/h (1 Bft)
20/12/2011 18:40 7,4 C 90 % 1020,8 hPa 0,0 mm 4,7 km/h (1 Bft) NO 315 0 min 0 W/m 5,9 C 6,9 C 12,2 km/h (2 Bft)
20/12/2011 18:45 7,4 C 90 % 1020,7 hPa 0,0 mm 0,4 km/h (0 Bft) NO 315 0 min 0 W/m 5,9 C 7,4 C 4,0 km/h (1 Bft)
20/12/2011 18:50 7,4 C 90 % 1021,0 hPa 0,0 mm 5,0 km/h (1 Bft) NO 315 0 min 0 W/m 5,9 C 6,8 C 9,4 km/h (2 Bft)
20/12/2011 18:55 7,4 C 89 % 1021,0 hPa 0,0 mm 6,8 km/h (2 Bft) NO 315 0 min 0 W/m 5,7 C 6,3 C 10,8 km/h (2 Bft)
20/12/2011 19:00 7,4 C 89 % 1020,9 hPa 0,0 mm 0,4 km/h (0 Bft) N-NO 337 0 min 0 W/m 5,7 C 7,4 C 0,4 km/h (0 Bft)
20/12/2011 19:05 7,4 C 89 % 1021,1 hPa 0,0 mm 0,0 km/h (0 Bft) NO 315 0 min 0 W/m 5,7 C 7,4 C 0,0 km/h (0 Bft)
20/12/2011 19:10 7,4 C 90 % 1021,1 hPa 0,0 mm 0,4 km/h (0 Bft) O 270 0 min 0 W/m 5,9 C 7,4 C 3,6 km/h (1 Bft)
20/12/2011 19:15 7,4 C 89 % 1021,2 hPa 0,0 mm 1,8 km/h (1 Bft) O-SO 247 0 min 0 W/m 5,7 C 7,4 C 7,6 km/h (2 Bft)
20/12/2011 19:20 7,4 C 89 % 1021,4 hPa 0,0 mm 1,8 km/h (1 Bft) N-NO 337 0 min 0 W/m 5,7 C 7,4 C 7,9 km/h (2 Bft)
20/12/2011 19:25 7,4 C 90 % 1021,4 hPa 0,0 mm 1,4 km/h (1 Bft) O 270 0 min 0 W/m 5,9 C 7,4 C 6,5 km/h (2 Bft)
20/12/2011 19:30 7,4 C 90 % 1021,4 hPa 0,0 mm 0,4 km/h (0 Bft) NO 315 0 min 0 W/m 5,9 C 7,4 C 0,4 km/h (0 Bft)
20/12/2011 19:35 7,3 C 90 % 1021,5 hPa 0,0 mm 0,0 km/h (0 Bft) O-SO 247 0 min 0 W/m 5,8 C 7,3 C 0,0 km/h (0 Bft)
20/12/2011 19:40 7,4 C 90 % 1021,5 hPa 0,0 mm 0,0 km/h (0 Bft) O 270 0 min 0 W/m 5,9 C 7,4 C 0,0 km/h (0 Bft)
20/12/2011 19:45 7,3 C 90 % 1021,4 hPa 0,0 mm 0,0 km/h (0 Bft) O 270 0 min 0 W/m 5,8 C 7,3 C 0,0 km/h (0 Bft)
20/12/2011 19:50 7,3 C 90 % 1021,5 hPa 0,0 mm 1,1 km/h (1 Bft) O 270 0 min 0 W/m 5,8 C 7,3 C 6,1 km/h (2 Bft)
20/12/2011 19:55 7,3 C 90 % 1021,4 hPa 0,0 mm 3,6 km/h (1 Bft) O-SO 247 0 min 0 W/m 5,8 C 7,3 C 3,6 km/h (1 Bft)
20/12/2011 20:00 7,3 C 90 % 1021,6 hPa 0,0 mm 1,8 km/h (1 Bft) O-NO 292 0 min 0 W/m 5,8 C 7,3 C 5,8 km/h (2 Bft)
20/12/2011 20:05 7,2 C 90 % 1021,8 hPa 0,0 mm 0,0 km/h (0 Bft) O 270 0 min 0 W/m 5,7 C 7,2 C 0,0 km/h (0 Bft)
20/12/2011 20:10 7,2 C 91 % 1021,6 hPa 0,0 mm 1,1 km/h (1 Bft) O-SO 247 0 min 0 W/m 5,8 C 7,2 C 1,1 km/h (1 Bft)
20/12/2011 20:15 7,2 C 91 % 1021,5 hPa 0,0 mm 0,7 km/h (0 Bft) O 270 0 min 0 W/m 5,8 C 7,2 C 0,7 km/h (0 Bft)
20/12/2011 20:20 7,2 C 91 % 1021,5 hPa 0,0 mm 0,0 km/h (0 Bft) O-SO 247 0 min 0 W/m 5,8 C 7,2 C 0,0 km/h (0 Bft)
20/12/2011 20:25 7,2 C 91 % 1021,9 hPa 0,0 mm 2,9 km/h (1 Bft) O-NO 292 0 min 0 W/m 5,8 C 7,2 C 10,4 km/h (2 Bft)
20/12/2011 20:30 7,3 C 91 % 1022,0 hPa 0,0 mm 3,2 km/h (1 Bft) O-NO 292 0 min 0 W/m 5,9 C 7,3 C 6,1 km/h (2 Bft)
20/12/2011 20:35 7,3 C 91 % 1021,9 hPa 0,0 mm 1,8 km/h (1 Bft) O-NO 292 0 min 0 W/m 5,9 C 7,3 C 7,9 km/h (2 Bft)
20/12/2011 20:40 7,3 C 91 % 1022,0 hPa 0,0 mm 0,4 km/h (0 Bft) O-NO 292 0 min 0 W/m 5,9 C 7,3 C 0,4 km/h (0 Bft)
20/12/2011 20:45 7,3 C 91 % 1021,9 hPa 0,0 mm 0,4 km/h (0 Bft) O-SO 247 0 min 0 W/m 5,9 C 7,3 C 1,8 km/h (1 Bft)
20/12/2011 20:50 7,3 C 91 % 1022,2 hPa 0,0 mm 0,0 km/h (0 Bft) O-NO 292 0 min 0 W/m 5,9 C 7,3 C 0,0 km/h (0 Bft)
20/12/2011 20:55 7,3 C 91 % 1022,4 hPa 0,0 mm 0,4 km/h (0 Bft) NO 315 0 min 0 W/m 5,9 C 7,3 C 4,0 km/h (1 Bft)
20/12/2011 21:00 7,3 C 91 % 1022,4 hPa 0,0 mm 3,2 km/h (1 Bft) O 270 0 min 0 W/m 5,9 C 7,3 C 3,2 km/h (1 Bft)
20/12/2011 21:05 7,3 C 91 % 1022,4 hPa 0,0 mm 0,7 km/h (0 Bft) O-SO 247 0 min 0 W/m 5,9 C 7,3 C 4,3 km/h (1 Bft)
20/12/2011 21:10 7,3 C 91 % 1022,5 hPa 0,0 mm 1,1 km/h (1 Bft) N-NO 337 0 min 0 W/m 5,9 C 7,3 C 4,0 km/h (1 Bft)
20/12/2011 21:15 7,3 C 91 % 1022,5 hPa 0,0 mm 4,0 km/h (1 Bft) O-NO 292 0 min 0 W/m 5,9 C 7,3 C 7,6 km/h (2 Bft)
20/12/2011 21:20 7,3 C 91 % 1022,5 hPa 0,0 mm 0,0 km/h (0 Bft) O-SO 247 0 min 0 W/m 5,9 C 7,3 C 0,0 km/h (0 Bft)
20/12/2011 21:25 7,3 C 91 % 1022,6 hPa 0,0 mm 0,0 km/h (0 Bft) O 270 0 min 0 W/m 5,9 C 7,3 C 0,0 km/h (0 Bft)
20/12/2011 21:30 7,3 C 91 % 1022,6 hPa 0,0 mm 0,0 km/h (0 Bft) O-SO 247 0 min 0 W/m 5,9 C 7,3 C 0,0 km/h (0 Bft)
20/12/2011 21:35 7,3 C 91 % 1022,7 hPa 0,0 mm 0,4 km/h (0 Bft) O-SO 247 0 min 0 W/m 5,9 C 7,3 C 0,4 km/h (0 Bft)
20/12/2011 21:40 7,3 C 91 % 1022,6 hPa 0,0 mm 0,0 km/h (0 Bft) SO 225 0 min 0 W/m 5,9 C 7,3 C 0,0 km/h (0 Bft)
20/12/2011 21:45 7,3 C 91 % 1022,6 hPa 0,0 mm 0,0 km/h (0 Bft) O-SO 247 0 min 0 W/m 5,9 C 7,3 C 1,4 km/h (1 Bft)
20/12/2011 21:50 7,3 C 91 % 1022,5 hPa 0,0 mm 0,0 km/h (0 Bft) O 270 0 min 0 W/m 5,9 C 7,3 C 0,0 km/h (0 Bft)
20/12/2011 21:55 7,3 C 92 % 1022,4 hPa 0,0 mm 0,0 km/h (0 Bft) O-SO 247 0 min 0 W/m 6,1 C 7,3 C 0,0 km/h (0 Bft)
20/12/2011 22:00 7,2 C 92 % 1022,3 hPa 0,0 mm 1,1 km/h (1 Bft) O-SO 247 0 min 0 W/m 6,0 C 7,2 C 1,1 km/h (1 Bft)
20/12/2011 22:05 7,2 C 92 % 1022,6 hPa 0,0 mm 0,4 km/h (0 Bft) O-SO 247 0 min 0 W/m 6,0 C 7,2 C 0,4 km/h (0 Bft)
20/12/2011 22:10 7,2 C 92 % 1022,6 hPa 0,0 mm 0,4 km/h (0 Bft) O 270 0 min 0 W/m 6,0 C 7,2 C 0,4 km/h (0 Bft)
20/12/2011 22:15 7,2 C 92 % 1022,7 hPa 0,0 mm 0,4 km/h (0 Bft) O-SO 247 0 min 0 W/m 6,0 C 7,2 C 3,6 km/h (1 Bft)
20/12/2011 22:20 7,2 C 92 % 1022,8 hPa 0,0 mm 0,0 km/h (0 Bft) O-SO 247 0 min 0 W/m 6,0 C 7,2 C 0,0 km/h (0 Bft)
20/12/2011 22:25 7,1 C 92 % 1022,9 hPa 0,0 mm 0,0 km/h (0 Bft) O 270 0 min 0 W/m 5,9 C 7,1 C 0,0 km/h (0 Bft)
20/12/2011 22:30 7,1 C 92 % 1022,9 hPa 0,0 mm 0,0 km/h (0 Bft) O-SO 247 0 min 0 W/m 5,9 C 7,1 C 0,0 km/h (0 Bft)
20/12/2011 22:35 7,1 C 92 % 1022,8 hPa 0,0 mm 0,0 km/h (0 Bft) O-SO 247 0 min 0 W/m 5,9 C 7,1 C 0,0 km/h (0 Bft)
20/12/2011 22:40 7,1 C 92 % 1022,7 hPa 0,0 mm 0,0 km/h (0 Bft) O-SO 247 0 min 0 W/m 5,9 C 7,1 C 0,0 km/h (0 Bft)
20/12/2011 22:45 7,1 C 92 % 1022,9 hPa 0,0 mm 0,0 km/h (0 Bft) O 270 0 min 0 W/m 5,9 C 7,1 C 0,0 km/h (0 Bft)
20/12/2011 22:50 7,1 C 92 % 1023,1 hPa 0,0 mm 0,4 km/h (0 Bft) O-SO 247 0 min 0 W/m 5,9 C 7,1 C 2,9 km/h (1 Bft)
20/12/2011 22:55 7,1 C 92 % 1023,0 hPa 0,0 mm 0,0 km/h (0 Bft) O-NO 292 0 min 0 W/m 5,9 C 7,1 C 0,0 km/h (0 Bft)
20/12/2011 23:00 7,1 C 92 % 1023,1 hPa 0,0 mm 1,1 km/h (1 Bft) O 270 0 min 0 W/m 5,9 C 7,1 C 3,2 km/h (1 Bft)
20/12/2011 23:05 7,1 C 92 % 1023,1 hPa 0,0 mm 0,4 km/h (0 Bft) O-SO 247 0 min 0 W/m 5,9 C 7,1 C 3,6 km/h (1 Bft)
20/12/2011 23:10 7,1 C 92 % 1023,1 hPa 0,0 mm 0,0 km/h (0 Bft) O-SO 247 0 min 0 W/m 5,9 C 7,1 C 0,0 km/h (0 Bft)
20/12/2011 23:15 7,1 C 92 % 1023,1 hPa 0,0 mm 1,1 km/h (1 Bft) O 270 0 min 0 W/m 5,9 C 7,1 C 4,0 km/h (1 Bft)
20/12/2011 23:20 7,1 C 92 % 1023,2 hPa 0,0 mm 4,7 km/h (1 Bft) O-SO 247 0 min 0 W/m 5,9 C 6,6 C 4,7 km/h (1 Bft)
20/12/2011 23:25 7,1 C 92 % 1023,2 hPa 0,0 mm 0,0 km/h (0 Bft) O 270 0 min 0 W/m 5,9 C 7,1 C 0,0 km/h (0 Bft)
20/12/2011 23:30 7,1 C 93 % 1023,2 hPa 0,0 mm 0,7 km/h (0 Bft) N-NO 337 0 min 0 W/m 6,0 C 7,1 C 3,2 km/h (1 Bft)
20/12/2011 23:35 7,1 C 93 % 1023,2 hPa 0,0 mm 1,1 km/h (1 Bft) O 270 0 min 0 W/m 6,0 C 7,1 C 4,0 km/h (1 Bft)
20/12/2011 23:40 7,1 C 93 % 1023,2 hPa 0,0 mm 0,0 km/h (0 Bft) O 270 0 min 0 W/m 6,0 C 7,1 C 0,0 km/h (0 Bft)
20/12/2011 23:45 7,1 C 93 % 1023,2 hPa 0,0 mm 0,0 km/h (0 Bft) O-SO 247 0 min 0 W/m 6,0 C 7,1 C 0,0 km/h (0 Bft)
20/12/2011 23:50 7,1 C 93 % 1023,2 hPa 0,0 mm 0,4 km/h (0 Bft) O-SO 247 0 min 0 W/m 6,0 C 7,1 C 0,4 km/h (0 Bft)
20/12/2011 23:55 7,1 C 93 % 1023,4 hPa 0,0 mm 0,7 km/h (0 Bft) O-SO 247 0 min 0 W/m 6,0 C 7,1 C 4,3 km/h (1 Bft)
_ Min-Heure 00:00 19:20 06:15 - 23:45 - - - - 00:00 00:10 23:45
Minimum _ 5,3 C 89 % 1014,2 hPa - 0,0 km/h (0 Bft) - - - - 4,6 C 2,6 C 0,0 km/h (0 Bft)
_ Max-Heure 13:45 02:40 23:55 07:15 14:20 - - 23:55 23:55 12:40 12:35 14:05
Maximum _ 9,9 C 97 % 1023,4 hPa 0,1 mm 19,4 km/h
NO (3 Bft)
- - 0 min 0 W/m 9,3 C 9,9 C 22,7 km/h
NO (4 Bft)
Moyenne _ 8,3 C 94 % 1017,9 hPa #1,4 mm 4,0 km/h (1 Bft) O-SO - #0 min. 0 W/m 7,3 C 7,8 C 7,1 km/h (2 Bft)
Saint Bonnet de Bellac- Haute Vienne - France